Location: Marysville Observatory
(48.1092°N, 122.1645°W)
Time: 09:15:45
(UTC-07:00)

Amateur Radio Satellites - All Passes

Search period start: 30 March 2015 08:45
Search period end: 31 March 2015 08:45
Location: Marysville Observatory, 48.1092°N, 122.1645°W

Satellite Date Start Highest point End Downlink Frequencies (MHz)
Time Altitude Azimuth
DANDE 30 Mar 08:50:41 08:54:28 52° 261° (W) 08:59:29 436.750
GOMX 1 30 Mar 08:56:03 08:59:03 19° 91° (E) 09:02:14 467.674
CUTE-I 30 Mar 09:01:03 09:05:27 26° 299° (WNW) 09:09:43 437.470
Cubesat XI-IV 30 Mar 09:01:33 09:05:55 26° 299° (WNW) 09:10:11 437.490
SEEDS 30 Mar 09:03:56 09:06:33 16° 88° (E) 09:09:19 437.485
PHONESAT 2.4 30 Mar 09:04:48 09:07:41 23° 183° (S) 09:10:34 2401.200-2431.200
HO-68 30 Mar 09:14:51 09:21:15 34° 94° (E) 09:27:43 435.675
UNISAT 6 30 Mar 09:17:06 09:18:41 12° 58° (ENE) 09:20:27 437.425
COMPASS 1 30 Mar 09:24:28 09:27:43 21° 91° (E) 09:31:01 437.405
TIGRISAT 30 Mar 09:26:11 09:28:23 14° 59° (ENE) 09:30:45 435.000
Oscar 11 30 Mar 09:30:50 09:31:50 11° 85° (E) 09:33:05 145.826/435.025
BEESAT 3 30 Mar 09:36:10 09:37:26 11° 110° (ESE) 09:38:54 437.485
CUSAT 1 30 Mar 09:39:21 09:42:09 16° 267° (W) 09:45:12 437.405
QB50P1 30 Mar 09:43:46 09:45:11 12° 58° (ENE) 09:46:46 145.935-145.965
DUCHIFAT 1 30 Mar 09:45:02 09:46:28 12° 58° (ENE) 09:48:03 145.980
UWE-3 30 Mar 09:49:35 09:51:08 12° 86° (E) 09:52:56 435.000/436.395/437.385
CINEMA 3 30 Mar 09:49:41 09:53:18 25° 93° (E) 09:57:06 145.822/145.860
BRITE-PL 30 Mar 09:51:40 09:55:52 84° 284° (WNW) 10:00:13 437.365/2234.400
VERMONT LUNAR 30 Mar 09:54:41 09:56:24 13° 199° (SSW) 09:58:05 437.305
ANTELSAT 30 Mar 09:55:25 09:58:57 26° 65° (ENE) 10:02:38 437.575/2403.000
CUBEBUG 2 30 Mar 09:55:42 09:58:29 17° 89° (E) 10:01:27 437.445
ZACube-1 30 Mar 09:56:18 09:57:30 11° 85° (E) 09:58:57 437.345
CANX-2 30 Mar 09:56:55 10:01:15 70° 102° (ESE) 10:05:33 2200.000
QB50P2 30 Mar 09:57:41 10:00:13 16° 61° (ENE) 10:02:53 145.880/145.840
DELFI C3 30 Mar 10:05:37 10:08:29 19° 90° (E) 10:11:27 145.870
CUTE 1.7 + AOD 2 30 Mar 10:10:43 10:15:03 87° 103° (ESE) 10:19:23 437.475
DOVE 4 30 Mar 10:17:07 10:21:26 82° 103° (ESE) 10:25:57 437.250
BUGSAT 1 30 Mar 10:19:42 10:22:30 18° 63° (ENE) 10:25:25 437.445
POPSAT HIP 1 30 Mar 10:25:02 10:28:35 27° 66° (ENE) 10:32:11 437.405
AAUSAT CUBESAT 2 30 Mar 10:31:22 10:35:39 88° 102° (ESE) 10:39:53 437.432
GOMX 1 30 Mar 10:33:24 10:37:30 48° 289° (WNW) 10:41:46 467.674
NANOSAT C BR1 30 Mar 10:34:56 10:38:43 34° 68° (ENE) 10:42:33 145.865
BEESAT 2 30 Mar 10:35:20 10:39:07 36° 119° (ESE) 10:42:58 435.950
UKube-1 30 Mar 10:36:02 10:39:06 19° 91° (E) 10:42:15 .
HUMSAT D 30 Mar 10:38:14 10:40:41 15° 88° (E) 10:43:19 437.325/437.525
SEEDS 30 Mar 10:38:33 10:42:47 58° 287° (WNW) 10:47:00 437.485
POLYITAN 1 30 Mar 10:39:59 10:43:52 38° 69° (ENE) 10:47:50 437.675
PHONESAT 2.4 30 Mar 10:43:18 10:45:22 15° 199° (SSW) 10:47:25 2401.200-2431.200
DX 1 30 Mar 10:47:14 10:50:51 26° 94° (E) 10:54:30 434.975-435.025
UNISAT 6 30 Mar 10:50:33 10:54:50 88° 76° (ENE) 10:59:14 437.425
COMPASS 1 30 Mar 10:59:34 11:03:37 42° 290° (WNW) 11:07:38 437.405
TIGRISAT 30 Mar 11:00:21 11:04:37 76° 257° (WSW) 11:08:58 435.000
HO-68 30 Mar 11:02:19 11:09:22 57° 294° (WNW) 11:16:20 435.675
Oscar 11 30 Mar 11:04:21 11:08:45 87° 291° (WNW) 11:13:07 145.826/435.025
BEESAT 3 30 Mar 11:10:46 11:14:54 89° 130° (SE) 11:19:05 437.485
50 SAT 30 Mar 11:12:06 11:15:12 22° 92° (E) 11:18:24 437.505
QB50P1 30 Mar 11:16:14 11:20:28 88° 77° (ENE) 11:24:43 145.935-145.965
FUNcube-1 30 Mar 11:16:51 11:21:13 69° 102° (ESE) 11:25:40 145.935
DUCHIFAT 1 30 Mar 11:17:29 11:21:42 89° 76° (ENE) 11:25:56 145.980
UWE-3 30 Mar 11:23:55 11:28:19 83° 286° (WNW) 11:32:51 435.000/436.395/437.385
CINEMA 3 30 Mar 11:26:34 11:30:40 39° 290° (WNW) 11:34:52 145.822/145.860
CUBEBUG 1 30 Mar 11:29:07 11:31:40 16° 88° (E) 11:34:22 437.445
ZACube-1 30 Mar 11:30:09 11:34:33 87° 284° (WNW) 11:39:02 437.345
VELOX 1 30 Mar 11:31:14 11:35:13 32° 96° (E) 11:39:12 145.980
CUBEBUG 2 30 Mar 11:31:15 11:35:36 60° 287° (WNW) 11:40:04 437.445
QB50P2 30 Mar 11:31:31 11:35:43 63° 259° (WSW) 11:39:55 145.880/145.840
ANTELSAT 30 Mar 11:31:41 11:35:39 36° 264° (W) 11:39:41 437.575/2403.000
BRITE-PL 30 Mar 11:32:53 11:33:51 11° 301° (WNW) 11:34:36 437.365/2234.400
CANX-2 30 Mar 11:34:08 11:36:43 15° 299° (WNW) 11:39:11 2200.000
AISAT 30 Mar 11:36:18 11:40:25 37° 97° (E) 11:44:32 437.250
DELFI C3 30 Mar 11:39:59 11:43:56 45° 289° (WNW) 11:47:51 145.870
CUTE 1.7 + AOD 2 30 Mar 11:48:26 11:50:24 13° 301° (WNW) 11:52:11 437.475
Oscar 19 30 Mar 11:52:08 11:54:05 12° 54° (NE) 11:56:15 437.125/150
AIST 2 30 Mar 11:52:59 11:57:15 75° 126° (SE) 12:01:34 435.215
BUGSAT 1 30 Mar 11:53:39 11:57:42 50° 260° (W) 12:01:44 437.445
DOVE 4 30 Mar 11:56:37 11:58:45 13° 300° (WNW) 12:00:45 437.250
POPSAT HIP 1 30 Mar 12:00:35 12:04:25 33° 264° (W) 12:08:14 437.405
AAUSAT CUBESAT 2 30 Mar 12:08:55 12:10:41 12° 301° (WNW) 12:12:19 437.432
ESTCUBE 1 30 Mar 12:09:21 12:13:41 43° 98° (E) 12:17:59 437.505/2401.250
NANOSAT C BR1 30 Mar 12:11:03 12:14:39 26° 266° (W) 12:18:12 145.865
UKube-1 30 Mar 12:11:22 12:15:34 49° 290° (WNW) 12:19:44 .
HUMSAT D 30 Mar 12:12:42 12:16:54 60° 287° (WNW) 12:21:08 437.325/437.525
BEESAT 2 30 Mar 12:13:30 12:17:18 33° 319° (NW) 12:21:08 435.950
POLYITAN 1 30 Mar 12:16:34 12:19:58 23° 267° (W) 12:23:19 437.675
O/OREOS (USA 219) 30 Mar 12:20:32 12:23:08 15° 42° (NE) 12:25:50 437.305
DX 1 30 Mar 12:23:12 12:27:13 36° 292° (WNW) 12:31:11 434.975-435.025
UNISAT 6 30 Mar 12:31:37 12:32:26 10° 276° (W) 12:33:00 437.425
Oscar 11 30 Mar 12:42:28 12:44:19 12° 302° (WNW) 12:45:59 145.826/435.025
50 SAT 30 Mar 12:46:31 12:50:17 38° 290° (WNW) 12:54:02 437.505
BEESAT 3 30 Mar 12:50:32 12:53:32 19° 328° (NNW) 12:56:30 437.485
HO-68 30 Mar 12:51:48 12:55:45 15° 315° (NW) 12:59:24 435.675
FUNcube-1 30 Mar 12:54:25 12:57:08 16° 299° (WNW) 12:59:46 145.935
TISAT 1 30 Mar 12:54:38 12:58:10 26° 94° (E) 13:01:47 437.305
QB50P1 30 Mar 12:56:42 12:57:05 10° 275° (W) 12:57:12 145.935-145.965
ITAMSAT 1 30 Mar 12:58:42 13:01:52 17° 57° (ENE) 13:05:13 435.822/435.867
UWE-3 30 Mar 13:02:35 13:04:16 12° 301° (WNW) 13:05:47 435.000/436.395/437.385
CUBEBUG 1 30 Mar 13:04:13 13:08:31 60° 288° (WNW) 13:12:45 437.445
VELOX 1 30 Mar 13:07:53 13:11:45 30° 294° (WNW) 13:15:34 145.980
ZACube-1 30 Mar 13:08:30 13:10:20 12° 301° (WNW) 13:12:01 437.345
SPROUT 30 Mar 13:08:49 13:12:57 44° 98° (E) 13:17:03 437.525
AISAT 30 Mar 13:13:11 13:16:55 26° 295° (WNW) 13:20:32 437.250
YUBILEINY 30 Mar 13:20:50 13:28:38 38° 85° (E) 13:36:36 435.215
ITUPSAT 1 30 Mar 13:27:28 13:28:35 11° 84° (E) 13:30:00 437.325
Oscar 19 30 Mar 13:27:32 13:32:37 70° 72° (ENE) 13:37:45 437.125/150
AIST 2 30 Mar 13:32:57 13:36:21 22° 326° (NNW) 13:39:42 435.215
ESTCUBE 1 30 Mar 13:46:40 13:50:21 24° 296° (WNW) 13:53:57 437.505/2401.250
AO-7 30 Mar 13:50:15 13:55:43 20° 43° (NE) 14:01:25 29.400- 29.500
Gurwin Techsat 1B 30 Mar 13:52:34 13:57:19 35° 65° (ENE) 14:02:10 435.225
BEESAT 2 30 Mar 13:55:31 13:56:42 11° 341° (NNW) 13:57:48 435.950
O/OREOS (USA 219) 30 Mar 13:58:45 14:03:21 85° 62° (ENE) 14:07:53 437.305
SWISSCUBE 30 Mar 14:12:25 14:16:42 32° 95° (E) 14:20:58 437.505
BEESAT 30 Mar 14:15:09 14:19:25 31° 95° (E) 14:23:42 436.000
TISAT 1 30 Mar 14:30:14 14:34:03 33° 292° (WNW) 14:37:47 437.305
ITAMSAT 1 30 Mar 14:35:32 14:40:46 87° 252° (WSW) 14:46:02 435.822/435.867
SPROUT 30 Mar 14:45:29 14:48:48 22° 296° (WNW) 14:52:03 437.525
PCSat 30 Mar 14:50:56 14:55:56 41° 115° (ESE) 15:01:02 145.827
JAS-2 30 Mar 14:51:17 14:57:00 27° 55° (NE) 15:03:13 435.910
ITUPSAT 1 30 Mar 15:02:32 15:07:23 83° 105° (ESE) 15:12:10 437.325
Oscar 19 30 Mar 15:09:04 15:12:34 18° 272° (W) 15:15:54 437.125/150
YUBILEINY 30 Mar 15:16:34 15:25:13 57° 287° (WNW) 15:33:54 435.215
HORYU 2 30 Mar 15:18:45 15:23:01 49° 70° (ENE) 15:27:21 437.375
AIST 1 30 Mar 15:23:06 15:27:24 61° 77° (ENE) 15:31:40
Gurwin Techsat 1B 30 Mar 15:32:22 15:37:18 38° 264° (W) 15:42:14 435.225
AO-7 30 Mar 15:39:00 15:47:11 67° 65° (ENE) 15:55:24 29.400- 29.500
KKS-1 30 Mar 15:40:15 15:44:31 43° 98° (E) 15:48:46 437.445
O/OREOS (USA 219) 30 Mar 15:40:18 15:42:08 12° 261° (W) 15:43:44 437.305
SWISSCUBE 30 Mar 15:50:13 15:54:35 35° 294° (WNW) 15:58:53 437.505
BEESAT 30 Mar 15:52:57 15:57:20 36° 293° (WNW) 16:01:39 436.000
STARS 30 Mar 16:09:11 16:13:32 55° 100° (E) 16:17:53 437.465
ITAMSAT 1 30 Mar 16:18:39 16:21:10 13° 275° (W) 16:23:24 435.822/435.867
JAS-2 30 Mar 16:34:06 16:41:12 85° 256° (WSW) 16:49:02 435.910
PCSat 30 Mar 16:34:17 16:39:25 40° 315° (NW) 16:44:32 145.827
ITUPSAT 1 30 Mar 16:41:48 16:44:42 16° 302° (WNW) 16:47:26 437.325
HORYU 2 30 Mar 16:56:39 17:00:00 20° 269° (W) 17:03:16 437.375
AIST 1 30 Mar 17:02:13 17:04:36 14° 275° (W) 17:06:49
CUTE-I 30 Mar 17:07:49 17:11:43 21° 59° (ENE) 17:15:44 437.470
Cubesat XI-IV 30 Mar 17:08:20 17:12:18 22° 59° (ENE) 17:16:23 437.490
BEESAT 2 30 Mar 17:13:57 17:16:38 16° 29° (NNE) 17:19:21 435.950
KKS-1 30 Mar 17:17:21 17:20:58 24° 296° (WNW) 17:24:28 437.445
YUBILEINY 30 Mar 17:19:52 17:24:39 15° 314° (NW) 17:29:01 435.215
MOZHAYETS 4 30 Mar 17:24:38 17:28:55 35° 95° (E) 17:33:11
AO-7 30 Mar 17:33:17 17:40:38 33° 266° (W) 17:47:50 29.400- 29.500
AUBIESAT-1 30 Mar 17:43:45 17:46:39 16° 92° (E) 17:49:41 437.475
GONETS M04 30 Mar 17:45:15 17:47:27 11° 70° (ENE) 17:50:19
STARS 30 Mar 17:46:29 17:49:40 19° 298° (WNW) 17:52:45 437.465
BEESAT 3 30 Mar 17:49:03 17:52:39 28° 39° (NE) 17:56:13 437.485
HO-68 30 Mar 18:06:59 18:07:50 10° 38° (NE) 18:09:00 435.675
M-CUBED/EXP-1 PRIME 30 Mar 18:08:29 18:12:43 30° 99° (E) 18:16:57 437.505
RS-15 30 Mar 18:17:42 18:26:14 29° 105° (ESE) 18:35:13 29.354- 29.394
PCSat 30 Mar 18:21:30 18:24:24 14° 339° (NNW) 18:27:11 145.827
SO-50 30 Mar 18:21:37 18:24:42 18° 112° (ESE) 18:27:59 436.795
JAS-2 30 Mar 18:22:31 18:27:35 19° 279° (W) 18:32:37 435.910
AIST 2 30 Mar 18:33:32 18:37:09 26° 37° (NE) 18:40:47 435.215
CUTE-I 30 Mar 18:46:00 18:51:21 69° 257° (WSW) 18:56:43 437.470
Cubesat XI-IV 30 Mar 18:46:37 18:51:58 67° 257° (WSW) 18:57:21 437.490
BEESAT 2 30 Mar 18:51:21 18:55:31 73° 50° (NE) 18:59:38 435.950
STRAND 1 30 Mar 18:59:59 19:03:08 17° 88° (E) 19:06:26 437.568
MOZHAYETS 4 30 Mar 19:01:59 19:06:06 30° 294° (WNW) 19:10:07
CUBESAT XI-V 30 Mar 19:15:36 19:19:57 39° 96° (E) 19:24:17 437.345
AUBIESAT-1 30 Mar 19:17:11 19:22:02 76° 291° (WNW) 19:26:47 437.475
CANX-2 30 Mar 19:21:25 19:22:12 11° 57° (ENE) 19:23:11 2200.000
BEESAT 3 30 Mar 19:26:55 19:30:53 46° 239° (WSW) 19:34:47 437.485
PRISM 30 Mar 19:28:20 19:32:15 38° 98° (E) 19:36:10 437.425
BRITE-PL 30 Mar 19:29:14 19:32:31 21° 65° (ENE) 19:35:46 437.365/2234.400
CUTE 1.7 + AOD 2 30 Mar 19:33:57 19:35:49 13° 59° (ENE) 19:37:50 437.475
GONETS M04 30 Mar 19:34:05 19:42:27 56° 91° (E) 19:50:58
M-CUBED/EXP-1 PRIME 30 Mar 19:43:06 19:47:42 42° 297° (WNW) 19:52:12 437.505
HO-68 30 Mar 19:47:17 19:53:43 38° 60° (ENE) 20:00:16 435.675
DOVE 4 30 Mar 19:51:12 19:53:34 15° 62° (ENE) 19:56:02 437.250
AAUSAT CUBESAT 2 30 Mar 19:53:05 19:54:42 12° 59° (ENE) 19:56:30 437.432
SEEDS 30 Mar 19:59:46 20:02:41 19° 63° (ENE) 20:05:45 437.485
SO-50 30 Mar 20:00:03 20:04:44 73° 311° (NW) 20:09:36 436.795
GOMX 1 30 Mar 20:07:53 20:11:41 30° 68° (ENE) 20:15:24 467.674
PCSat 30 Mar 20:09:40 20:10:18 10° 5° (N) 20:10:59 145.827
AIST 2 30 Mar 20:11:51 20:16:03 54° 238° (WSW) 20:20:08 435.215
COMPASS 1 30 Mar 20:19:27 20:22:48 24° 65° (ENE) 20:26:13 437.405
RS-15 30 Mar 20:26:27 20:37:23 87° 309° (NW) 20:48:38 29.354- 29.394
Oscar 11 30 Mar 20:28:43 20:31:04 15° 60° (ENE) 20:33:36 145.826/435.025
BEESAT 2 30 Mar 20:30:46 20:33:11 15° 248° (WSW) 20:35:26 435.950
CUTE-I 30 Mar 20:32:12 20:32:35 10° 278° (W) 20:32:37 437.470
STRAND 1 30 Mar 20:37:51 20:42:58 74° 288° (WNW) 20:48:03 437.568
FUNcube-1 30 Mar 20:43:55 20:44:44 11° 58° (ENE) 20:45:44 145.935
UWE-3 30 Mar 20:50:32 20:52:52 15° 61° (ENE) 20:55:20 435.000/436.395/437.385
CANX-2 30 Mar 20:53:12 20:57:27 78° 77° (ENE) 21:01:45 2200.000
CUBESAT XI-V 30 Mar 20:53:20 20:57:17 27° 295° (WNW) 21:01:09 437.345
AUBIESAT-1 30 Mar 20:53:31 20:56:07 14° 309° (NW) 20:58:33 437.475
CINEMA 3 30 Mar 20:55:23 20:59:06 32° 68° (ENE) 21:02:50 145.822/145.860
ZACube-1 30 Mar 20:55:56 20:58:04 14° 60° (ENE) 21:00:22 437.345
DELFI C3 30 Mar 20:57:07 21:00:04 20° 64° (ENE) 21:03:07 145.870
CUBEBUG 2 30 Mar 20:57:55 21:00:59 21° 64° (ENE) 21:04:08 437.445
PRISM 30 Mar 21:04:11 21:07:35 24° 295° (WNW) 21:10:53 437.425
BRITE-PL 30 Mar 21:06:23 21:10:52 49° 261° (W) 21:15:05 437.365/2234.400
CUTE 1.7 + AOD 2 30 Mar 21:06:55 21:11:10 84° 257° (WSW) 21:15:28 437.475
CUSAT 1 30 Mar 21:10:39 21:13:11 38° 98° (E) 21:15:39 437.405
AAUSAT CUBESAT 2 30 Mar 21:25:34 21:29:45 86° 256° (WSW) 21:34:00 437.432
DOVE 4 30 Mar 21:26:43 21:30:58 65° 259° (WSW) 21:35:07 437.250
GONETS M04 30 Mar 21:31:41 21:39:45 39° 294° (WNW) 21:47:46
HUMSAT D 30 Mar 21:34:00 21:36:43 18° 63° (ENE) 21:39:33 437.325/437.525
SEEDS 30 Mar 21:34:04 21:38:11 51° 261° (W) 21:42:22 437.485
UKube-1 30 Mar 21:34:18 21:37:55 27° 65° (ENE) 21:41:36 .
HO-68 30 Mar 21:34:19 21:41:18 53° 260° (W) 21:48:19 435.675
SO-50 30 Mar 21:42:35 21:46:08 20° 333° (NNW) 21:49:43 436.795
GOMX 1 30 Mar 21:45:59 21:49:52 29° 265° (W) 21:53:34 467.674
DX 1 30 Mar 21:46:10 21:50:08 36° 68° (ENE) 21:54:10 434.975-435.025
PCSat 30 Mar 21:52:05 21:55:59 20° 31° (NNE) 21:59:57 145.827
COMPASS 1 30 Mar 21:54:24 21:58:20 38° 263° (W) 22:02:18 437.405
50 SAT 30 Mar 22:01:57 22:04:56 22° 65° (ENE) 22:08:01 437.505
Oscar 11 30 Mar 22:02:27 22:06:46 73° 258° (WSW) 22:11:07 145.826/435.025
DANDE 30 Mar 22:09:44 22:12:21 34° 285° (WNW) 22:14:47 436.750
FUNcube-1 30 Mar 22:16:17 22:20:25 83° 76° (ENE) 22:24:38 145.935
STRAND 1 30 Mar 22:19:00 22:21:23 13° 306° (NW) 22:23:34 437.568
ISS 30 Mar 22:20:40 22:22:31 15° 137° (SE) 22:24:26 145.825
UWE-3 30 Mar 22:24:51 22:28:58 65° 259° (W) 22:33:08 435.000/436.395/437.385
CUBEBUG 1 30 Mar 22:28:38 22:31:59 22° 64° (ENE) 22:35:24 437.445
ZACube-1 30 Mar 22:29:50 22:33:58 71° 259° (WSW) 22:38:09 437.345
DELFI C3 30 Mar 22:31:03 22:34:58 45° 262° (W) 22:38:56 145.870
VELOX 1 30 Mar 22:32:15 22:36:29 46° 70° (ENE) 22:40:45 145.980
CANX-2 30 Mar 22:32:21 22:34:03 12° 275° (W) 22:35:31 2200.000
CINEMA 3 30 Mar 22:32:52 22:36:24 26° 266° (W) 22:39:53 145.822/145.860
CUBEBUG 2 30 Mar 22:33:29 22:37:27 43° 262° (W) 22:41:28 437.445
AISAT 30 Mar 22:37:33 22:41:52 53° 71° (ENE) 22:46:13 437.250
UNISAT 6 30 Mar 22:39:59 22:42:37 15° 88° (E) 22:45:27 437.425
RS-15 30 Mar 22:41:11 22:51:24 41° 338° (NNW) 23:01:55 29.354- 29.394
TIGRISAT 30 Mar 22:49:07 22:52:13 18° 90° (E) 22:55:29 435.000
QB50P1 30 Mar 23:00:07 23:01:22 11° 86° (E) 23:02:52 145.935-145.965
DUCHIFAT 1 30 Mar 23:01:04 23:02:16 11° 86° (E) 23:03:43 145.980
HUMSAT D 30 Mar 23:08:08 23:12:09 52° 260° (W) 23:16:13 437.325/437.525
UKube-1 30 Mar 23:09:56 23:13:58 36° 263° (W) 23:17:59 .
ESTCUBE 1 30 Mar 23:12:18 23:16:47 62° 72° (ENE) 23:21:19 437.505/2401.250
QB50P2 30 Mar 23:14:22 23:17:03 17° 89° (E) 23:19:51 145.880/145.840
ANTELSAT 30 Mar 23:19:32 23:23:45 35° 96° (E) 23:28:03 437.575/2403.000
DX 1 30 Mar 23:22:46 23:26:30 26° 266° (W) 23:30:10 434.975-435.025
YUBILEINY 30 Mar 23:25:54 23:32:37 24° 56° (NE) 23:39:33 435.215
SO-50 30 Mar 23:26:54 23:28:33 11° 357° (N) 23:30:12 436.795
BUGSAT 1 30 Mar 23:33:16 23:35:55 17° 90° (E) 23:38:41 437.445
PCSat 30 Mar 23:34:57 23:40:24 72° 53° (NE) 23:45:49 145.827
50 SAT 30 Mar 23:36:00 23:39:40 37° 263° (W) 23:43:22 437.505
POPSAT HIP 1 30 Mar 23:42:02 23:45:46 30° 95° (E) 23:49:31 437.405
TISAT 1 30 Mar 23:50:20 23:54:06 32° 67° (ENE) 23:57:53 437.305
NANOSAT C BR1 30 Mar 23:51:49 23:55:45 37° 97° (E) 23:59:43 145.865
ISS 30 Mar 23:55:15 23:58:30 74° 154° (SSE) 00:01:45 145.825
FUNcube-1 30 Mar 23:56:37 23:57:29 10° 275° (W) 23:58:08 145.935
POLYITAN 1 30 Mar 23:57:29 00:01:34 44° 98° (E) 00:05:39 437.675
CUBEBUG 1 31 Mar 00:03:51 00:08:06 46° 261° (W) 00:12:21 437.445
SPROUT 31 Mar 00:06:21 00:10:32 54° 72° (ENE) 00:14:43 437.525
VELOX 1 31 Mar 00:09:53 00:13:19 21° 268° (W) 00:16:40 145.980
UNISAT 6 31 Mar 00:15:21 00:19:56 69° 287° (WNW) 00:24:33 437.425
AISAT 31 Mar 00:15:41 00:18:51 18° 270° (W) 00:21:53 437.250
TIGRISAT 31 Mar 00:24:53 00:29:22 58° 288° (WNW) 00:33:55 435.000
QB50P1 31 Mar 00:33:39 00:37:55 80° 286° (WNW) 00:42:09 145.935-145.965
DUCHIFAT 1 31 Mar 00:34:32 00:38:47 80° 283° (WNW) 00:42:59 145.980
ITUPSAT 1 31 Mar 00:36:38 00:40:09 21° 61° (ENE) 00:43:48 437.325
QB50P2 31 Mar 00:49:11 00:53:21 55° 288° (WNW) 00:57:29 145.880/145.840
ESTCUBE 1 31 Mar 00:51:07 00:54:08 17° 271° (W) 00:57:01 437.505/2401.250
ANTELSAT 31 Mar 00:56:28 01:00:28 30° 294° (WNW) 01:04:29 437.575/2403.000
RS-15 31 Mar 00:57:26 01:07:25 35° 11° (N) 01:17:51 29.354- 29.394
BUGSAT 1 31 Mar 01:07:49 01:11:43 47° 289° (WNW) 01:15:36 437.445
SO-50 31 Mar 01:07:59 01:11:05 16° 21° (NNE) 01:14:16 436.795
POPSAT HIP 1 31 Mar 01:17:56 01:21:39 30° 293° (WNW) 01:25:19 437.405
PCSat 31 Mar 01:19:20 01:23:20 21° 252° (WSW) 01:27:10 145.827
YUBILEINY 31 Mar 01:22:01 01:30:56 89° 81° (E) 01:39:43 435.215
SWISSCUBE 31 Mar 01:22:18 01:26:59 55° 70° (ENE) 01:31:43 437.505
BEESAT 31 Mar 01:24:58 01:29:38 54° 70° (ENE) 01:34:20 436.000
TISAT 1 31 Mar 01:26:18 01:29:56 27° 266° (W) 01:33:32 437.305
NANOSAT C BR1 31 Mar 01:28:00 01:31:28 25° 295° (WNW) 01:34:53 145.865
ISS 31 Mar 01:31:54 01:35:03 44° 353° (N) 01:38:11 145.825
POLYITAN 1 31 Mar 01:33:58 01:37:16 22° 296° (WNW) 01:40:29 437.675
Oscar 19 31 Mar 01:36:19 01:39:52 19° 89° (E) 01:43:33 437.125/150
STARS 31 Mar 01:37:08 01:38:07 11° 56° (NE) 01:39:19 437.465
SPROUT 31 Mar 01:44:07 01:47:00 17° 271° (W) 01:49:47 437.525
UNISAT 6 31 Mar 01:54:54 01:55:59 11° 304° (WNW) 01:56:51 437.425
QB50P1 31 Mar 02:12:02 02:13:08 11° 303° (WNW) 02:14:03 145.935-145.965
DUCHIFAT 1 31 Mar 02:12:53 02:13:57 11° 303° (WNW) 02:14:49 145.980
ITUPSAT 1 31 Mar 02:12:56 02:17:42 58° 259° (W) 02:22:30 437.325
KKS-1 31 Mar 02:41:47 02:46:09 61° 72° (ENE) 02:50:34 437.445
ITAMSAT 1 31 Mar 02:45:18 02:49:32 25° 92° (E) 02:53:50 435.822/435.867
SO-50 31 Mar 02:47:58 02:52:48 49° 44° (NE) 02:57:36 436.795
SWISSCUBE 31 Mar 03:01:36 03:05:14 21° 270° (W) 03:08:46 437.505
BEESAT 31 Mar 03:04:11 03:07:52 21° 270° (W) 03:11:25 436.000
ISS 31 Mar 03:08:35 03:11:47 54° 14° (NNE) 03:14:58 145.825
STARS 31 Mar 03:09:31 03:13:54 76° 73° (ENE) 03:18:17 437.465
RS-15 31 Mar 03:11:11 03:22:28 64° 42° (NE) 03:34:17 29.354- 29.394
Oscar 19 31 Mar 03:14:37 03:19:46 67° 288° (WNW) 03:24:55 437.125/150
YUBILEINY 31 Mar 03:20:15 03:26:43 23° 282° (WNW) 03:32:48 435.215
M-CUBED/EXP-1 PRIME 31 Mar 03:29:31 03:30:21 11° 47° (NE) 03:31:23 437.505
AO-7 31 Mar 03:38:22 03:42:45 16° 83° (E) 03:47:36 29.400- 29.500
JAS-2 31 Mar 03:42:06 03:46:13 16° 78° (ENE) 03:50:34 435.910
Gurwin Techsat 1B 31 Mar 03:44:16 03:49:36 67° 102° (ESE) 03:54:53 435.225
AIST 1 31 Mar 03:56:32 04:00:22 30° 91° (E) 04:04:15
O/OREOS (USA 219) 31 Mar 04:14:22 04:18:47 49° 110° (ESE) 04:23:16 437.305
KKS-1 31 Mar 04:20:25 04:23:16 16° 271° (W) 04:25:58 437.445
ITAMSAT 1 31 Mar 04:24:20 04:29:21 49° 291° (WNW) 04:34:18 435.822/435.867
SO-50 31 Mar 04:28:51 04:33:13 31° 243° (WSW) 04:37:29 436.795
MOZHAYETS 4 31 Mar 04:29:54 04:34:21 49° 70° (ENE) 04:38:52
AUBIESAT-1 31 Mar 04:34:33 04:38:19 32° 60° (ENE) 04:42:23 437.475
HORYU 2 31 Mar 04:42:49 04:47:18 60° 101° (ESE) 04:51:47 437.375
ISS 31 Mar 04:45:04 04:48:09 41° 212° (SSW) 04:51:12 145.825
STARS 31 Mar 04:48:54 04:50:59 13° 273° (W) 04:52:51 437.465
Oscar 19 31 Mar 04:56:12 04:58:17 12° 306° (NW) 05:00:07 437.125/150
M-CUBED/EXP-1 PRIME 31 Mar 05:00:12 05:04:19 61° 66° (ENE) 05:08:48 437.505
RS-15 31 Mar 05:23:56 05:34:48 50° 246° (WSW) 05:45:58 29.354- 29.394
JAS-2 31 Mar 05:25:04 05:32:54 71° 101° (E) 05:40:06 435.910
Gurwin Techsat 1B 31 Mar 05:25:08 05:29:09 22° 300° (WNW) 05:33:02 435.225
AO-7 31 Mar 05:28:59 05:37:18 71° 106° (ESE) 05:45:35 29.400- 29.500
AIST 1 31 Mar 05:34:09 05:38:03 29° 289° (WNW) 05:41:54
GONETS M04 31 Mar 05:39:38 05:47:28 35° 64° (ENE) 05:55:26
VERMONT LUNAR 31 Mar 05:51:59 05:54:00 15° 163° (SSE) 05:56:03 437.305
O/OREOS (USA 219) 31 Mar 05:54:40 05:58:30 25° 310° (NW) 06:02:17 437.305
MOZHAYETS 4 31 Mar 06:08:18 06:11:54 21° 270° (W) 06:15:24
AUBIESAT-1 31 Mar 06:09:21 06:13:07 32° 260° (W) 06:17:09 437.475
STRAND 1 31 Mar 06:18:49 06:23:27 35° 66° (ENE) 06:28:08 437.568
HORYU 2 31 Mar 06:20:24 06:23:35 19° 299° (WNW) 06:26:38 437.375
PRISM 31 Mar 06:21:52 06:25:54 47° 70° (ENE) 06:29:59 437.425
CUBESAT XI-V 31 Mar 06:22:15 06:26:52 57° 72° (ENE) 06:31:30 437.345
M-CUBED/EXP-1 PRIME 31 Mar 06:36:57 06:39:44 17° 267° (W) 06:42:30 437.505
PHONESAT 2.4 31 Mar 06:48:31 06:50:52 17° 164° (SSE) 06:53:16 2401.200-2431.200
CUTE-I 31 Mar 06:59:39 07:04:32 36° 96° (E) 07:09:26 437.470
Cubesat XI-IV 31 Mar 07:00:25 07:05:21 37° 96° (E) 07:10:16 437.490
DANDE 31 Mar 07:00:54 07:03:32 17° 69° (ENE) 07:06:48 436.750
JAS-2 31 Mar 07:10:40 07:17:21 31° 302° (WNW) 07:23:32 435.910
AO-7 31 Mar 07:22:23 07:29:37 34° 307° (NW) 07:36:44 29.400- 29.500
VERMONT LUNAR 31 Mar 07:28:23 07:31:04 22° 180° (S) 07:33:45 437.305
GONETS M04 31 Mar 07:36:18 07:45:00 64° 267° (W) 07:53:40
CUSAT 1 31 Mar 07:40:48 07:44:54 54° 76° (ENE) 07:50:23 437.405
STRAND 1 31 Mar 07:57:55 08:02:40 36° 264° (W) 08:07:23 437.568
PRISM 31 Mar 07:58:33 08:01:40 19° 269° (W) 08:04:42 437.425
CUBESAT XI-V 31 Mar 08:01:20 08:04:43 19° 271° (W) 08:07:59 437.345
PHONESAT 2.4 31 Mar 08:25:42 08:28:36 24° 181° (S) 08:31:29 2401.200-2431.200
CANX-2 31 Mar 08:37:26 08:38:32 11° 85° (E) 08:39:54 2200.000
